www.pogodaiklimat.ru

Погода и климат >> Архив погоды >> Мьянма >> Катха


ПОГОДА в Катхе

  • Прогноз погоды в Катхе
  • Монитор погоды в Катхе

АРХИВ ПОГОДЫ в Катхе

Время (UTC), дата Ветер
(напр.,м/с)
 
Видим.   Явления Облачность Т
(С)
Тd
(С)
f
(%)
Тe
(С)
Тes
(С)
Комфортность P
(гПа)
Po
(гПа)
Тmin
(С)
Tmax
(С)
R
(мм)
R24
(мм)
S
(см)
06 17.07 ЮЗ 2 10 км {морось} 5/3 1000 м
[Cu med, cong Ac lent]
+33.5 +25.8 64 +49 +61 опасность
перегрева
1001.6 991.1
09 17.07 СВ 1 9000 м 8/4 1000 м
[Cu Sc Ac As]
+34.0 +27.0 67 +52 +56 опасность
перегрева
999.1 988.6
12 17.07 СВ 1 5000 м 5/1 1000 м
[Cu hum Ac lent Ci sp]
+30.5 +26.0 77 +46 +46 опасность
перегрева
998.5 987.9 +35.9 0.0
00 18.07 СВ 1 4000 м гроза без осадков 9/5 600 м
[Cb cap Ac As Ci sp]
+27.0 +25.6 92 +40 +40 очень
душно
1001.9 991.1 +25.0
03 18.07 ЮЗ 1 7000 м {гроза} 10/5 600 м
[Cu Sc Ac As]
+29.0 +26.3 85 +44 +47 опасность
перегрева
1002.9 992.2
06 18.07 ЮЗ 2 10 км {гроза} 5/3 1000 м
[Cu med, cong Ac lent]
+30.0 +26.0 79 +45 +57 опасность
перегрева
1002.0 991.3
09 18.07 ЮЗ 1 10 км 4/3 1000 м
[Cu med, cong Ac lent]
+33.0 +25.8 66 +48 +56 опасность
перегрева
999.8 989.3
12 18.07 штиль 0 6000 м 4/3 1000 м
[Cu med, cong Ac lent]
+31.5 +26.6 75 +48 +48 опасность
перегрева
998.7 988.1 +33.7
00 19.07 штиль 0 5000 м 5/3 1000 м
[Cu med, cong Ac lent Ci sp]
+27.0 +26.3 96 +41 +42 опасность
перегрева
1002.2 991.4 +24.6
03 19.07 ЮВ 1 8000 м 4/1 1000 м
[Cu hum Ac lent Ci sp]
+31.5 +26.6 75 +48 +61 опасность
перегрева
1003.3 992.7
06 19.07 ЮВ 1 10 км 3/1 1000 м
[Cu hum Ac lent]
+34.0 +24.9 59 +47 +66 опасность
перегрева
1002.2 991.7
09 19.07 ЮВ 2 10 км 4/3 1000 м
[Cu med, cong Ac lent]
+36.0 +24.9 53 +49 +56 опасность
перегрева
999.3 988.9
12 19.07 СЗ 2 5000 м 5/3 1000 м
[Cu med, cong Ac lent Ci sp]
+30.5 +26.0 77 +46 +46 опасность
перегрева
999.5 988.9 +36.1
00 20.07 штиль 0 4000 м 5/3 600 м
[Cu Sc Ac lent]
+27.0 +26.3 96 +41 +42 опасность
перегрева
1003.0 992.2 +25.0
03 20.07 ЮВ 2 8000 м 5/3 1000 м
[Cu med, cong Ac lent]
+32.0 +24.8 66 +45 +53 опасность
перегрева
1004.3 993.7
06 20.07 ЮЗ 2 9000 м 8/4 600 м
[Cu Sc Ac As]
+34.5 +24.9 58 +48 +55 опасность
перегрева
1002.9 992.4
09 20.07 ЮЗ 2 10 км 6/3 1000 м
[Cu med, cong Ac lent Ci sp]
+34.0 +26.4 65 +51 +56 опасность
перегрева
1000.3 989.8
12 20.07 В 3 4000 м {гроза} 9/4 600 м
[Cu Sc Ac As Ci sp]
+29.5 +24.4 74 +41 +41 опасность
перегрева
1000.0 989.3 +35.2
00 21.07 штиль 0 4000 м {морось} 9/5 600 м
[Cu Sc Ac As]
+26.5 +25.8 96 +39 +40 очень
душно
1002.2 991.4 +24.2 1
03 21.07 штиль 0 7000 м в посл. час морось 10/5 300 м
[Cu Sc Ac As]
+27.0 +26.3 96 +41 +44 опасность
перегрева
1005.0 994.2
06 21.07 ЮЗ 2 9000 м {морось} 10/5 600 м
[Cu Sc Ac As]
+28.0 +26.8 93 +44 +47 опасность
перегрева
1005.0 994.2
09 21.07 ЮЗ 1 9000 м 10/6 600 м
[Cu Sc Ac As]
+27.5 +26.2 93 +42 +43 опасность
перегрева
1003.2 992.4
12 21.07 ЮЗ 1 5000 м 10/5 600 м
[Cu Sc Ac As]
+27.5 +25.3 88 +40 +40 очень
душно
1003.0 992.2 +28.3 1
00 22.07 штиль 0 4000 м 10/5 600 м
[Cu Sc Ac As]
+26.0 +25.3 96 +38 +38 очень
душно
1003.4 992.6 +23.5
03 22.07 ЮВ 3 5000 м 9/5 600 м
[Cu Sc Ac As]
+28.9 +24.0 75 +40 +43 очень
душно
1004.6 993.9
06 22.07 ЮЗ 1 7000 м 10/5 600 м
[Cu Sc Ac As]
+28.5 +24.9 81 +41 +45 опасность
перегрева
1004.5 993.7
09 22.07 ЮЗ 1 9000 м 10/5 600 м
[Cu Sc Ac As]
+29.5 +25.1 77 +43 +44 опасность
перегрева
1002.1 991.4
12 22.07 ЮЗ 1 4000 м 9/5 600 м
[Cu Sc Ac As]
+29.1 +25.4 80 +42 +42 опасность
перегрева
1001.2 990.5 +30.0
00 23.07 штиль 0 4000 м 10/5 600 м
[Cu Sc Ac As]
+27.0 +24.8 88 +39 +39 очень
душно
1002.3 991.5 +25.0
03 23.07 ЮВ 1 5000 м 10/6 600 м
[Cu Sc Ac As]
+29.0 +25.4 81 +43 +45 опасность
перегрева
1003.8 993.1
06 23.07 ЮЗ 1 7000 м 8/5 600 м
[Cu Sc Ac As]
+31.0 +25.4 72 +45 +53 опасность
перегрева
1003.5 992.8
09 23.07 ЮЗ 2 8000 м 10/5 600 м
[Cu Sc Ac As]
+31.0 +26.7 78 +48 +49 опасность
перегрева
1000.2 989.6
12 23.07 штиль 0 5000 м 9/5 1000 м
[Cu Sc Ac As]
+30.5 +26.0 77 +46 +46 опасность
перегрева
999.7 989.1 +31.7
00 24.07 штиль 0 4000 м {морось} 10/5 600 м
[Cu Sc Ac As]
+25.5 +24.2 93 +35 +36 очень
душно
1002.4 991.6 +23.3 1
03 24.07 ЮВ 1 4000 м слаб. морось 10/5 600 м
[Cu Sc Ac As]
+27.0 +25.6 92 +40 +42 очень
душно
1003.8 993.0

 

Местоположение метеостанции Катха (Мьянма): широта 24.17 долгота 96.33 высота над уровнем моря 95 м.

В архиве по умолчанию представлена погода в Катхе за последнюю неделю. Архивные данные за месяц целиком и за предыдущие месяцы, начиная с января 2011 года, Вы можете получить, выбрав интересующий диапазон дат из раскрывающегося списка и нажав кнопку "Ввод!".


*Определитесь, кто Вы:
робот инопланетянин человек

Внимание! Время в таблицах - всемирное. Для получения местного времени необходимо прибавить поправку, которая равна 6.5 ч.

Смотрите также архив погоды в соседних городах и на ближайших метеорологических станциях:

Погода в Банмо (Мьянма) (89 км)
Погода в Могоу (Мьянма) (140 км)
Погода в Жуйли (Юньнань, Китай) (153 км)
Погода в Хомалине (Мьянма) (163 км)
Погода в Мьичине (Мьянма) (172 км)
Погода в Шуэбо (Мьянма) (187 км)
Погода в Лашо (Мьянма) (200 км)
Погода в Молейке (Мьянма) (203 км)
Погода в Хкамти (Мьянма) (213 км)
Погода в Калеве (Мьянма) (233 км)

Пояснения к столбцам:

Ветер - указаны скорость ветра в м/с - средняя за 10 мин, порывы в срок и между сроками (в фигурных скобках) и направление, откуда дует ветер: С - северный, СВ - северо-восточный, В - восточный, ЮВ - юго-восточный, Ю - южный, ЮЗ - юго-западный, З - западный, СЗ - северо-западный.
Видимость - горизонтальная дальность видимости в метрах или километрах. При видимости от 1 до 10 км при отсутствии осадков обычно наблюдается дымка, при ухудшении видимости до 1 км и менее - туман. В сухую погоду видимость может ухудшаться дымом, пылью или мглою.
Явления - указаны атмосферные явления, наблюдавшиеся в срок или в последний час перед сроком; фигурными скобками обозначены явления, наблюдавшиеся между сроками (за 1-3 часа до срока); квадратными скобками обозначены град или гололедные отложения с указанием их диаметра в мм.
Облачность - указаны через наклонную черту общая и нижняя облачность в баллах и высота нижней границы облаков в метрах; квадратными скобками обозначены формы облаков: Ci - перистые, Cs - перисто-слоистые, Cc - перисто-кучевые, Ac - высококучевые, As - высокослоистые, Sc - слоисто-кучевые, Ns - слоисто-дождевые, Cu - кучевые, Cb - кучево-дождевые. Подробнее классификацию облаков см. в Атласе облаков (PDF).
T - Температура воздуха - температура, измеренная на высоте 2 м над землей.
Td - Температура точки росы - температура, при понижении до которой содержащийся в воздухе водяной пар достигнет насыщения.
f - Относительная влажность воздуха - влажноcть воздуха, измеренная на высоте 2 м над землей.
Te - Эффективная температура - температура, которую ощущает одетый по сезону человек в тени. Характеристика душности погоды. При расчете учитывается влияние влажности воздуха и скорости ветра на теплоощущения человека.
Tes - Эффективная температура на солнце - температура, которую ощущает человек, с поправкой на солнечный нагрев. Характеристика знойности погоды. Зависит от высоты солнца над горизонтом, облачности и скорости ветра. Ночью, в пасмурную погоду, а также при ветре 12 м/с и более поправка равна нулю.
P - Атмосферное давление - приведенное к уровню моря атмосферное давление.
Po - Атмосферное давление - измеренное на уровне метеостанции атмосферное давление.
Tmin - Минимальная температура - минимум температуры воздуха на высоте 2 м над землей.
Tmax - Максимальная температура - максимум температуры воздуха на высоте 2 м над землей.
R - Количество осадков - Количество выпавших осадков за период времени, мм. При наведении курсора мыши на число - период времени, за который выпало указанное количество осадков.
R24 - Количество осадков - Количество выпавших осадков за 24 часа, мм.
S - Снежный покров - Высота снежного покрова, см. При наведении курсора мыши на число - состояние снежного покрова и степень покрытия местности в баллах.